| time (UTC) | temp F | wind direction | speed knots | gust knots | rain 1hr in | rain 24hr in | rain mn in | humidity % | barometer mb |
| 20260903235355 | 78 | 253 | 0.0 | 0.9 | 0.00 | 0.00 | 0.00 | 75 | 1023.4 |
| 20260903234351 | 78 | 253 | 0.9 | 1.7 | 0.00 | 0.00 | 0.00 | 75 | 1023.4 |
| 20260903233352 | 78 | 253 | 0.0 | 1.7 | 0.00 | 0.00 | 0.00 | 75 | 1023.5 |
| 20260903232348 | 78 | 253 | 0.9 | 2.6 | 0.00 | 0.00 | 0.00 | 75 | 1023.6 |
| 20260903231343 | 78 | 253 | 0.9 | 1.7 | 0.00 | 0.00 | 0.00 | 74 | 1023.7 |
| 20260903230344 | 78 | 253 | 0.9 | 2.6 | 0.00 | 0.00 | 0.00 | 74 | 1023.6 |
| 20260903225401 | 79 | 253 | 1.7 | 2.6 | 0.00 | 0.00 | 0.00 | 73 | 1023.7 |
| 20260903224339 | 79 | 253 | 1.7 | 2.6 | 0.00 | 0.00 | 0.00 | 73 | 1023.5 |
| 20260903223339 | 79 | 253 | 1.7 | 3.5 | 0.00 | 0.00 | 0.00 | 74 | 1023.6 |
| 20260903222339 | 79 | 253 | 0.9 | 2.6 | 0.00 | 0.00 | 0.00 | 73 | 1023.6 |
| 20260903221344 | 79 | 253 | 1.7 | 3.5 | 0.00 | 0.00 | 0.00 | 73 | 1023.6 |
| 20260903220347 | 79 | 253 | 1.7 | 3.5 | 0.00 | 0.00 | 0.00 | 72 | 1023.6 |
| 20260903215340 | 79 | 253 | 1.7 | 3.5 | 0.00 | 0.00 | 0.00 | 72 | 1023.6 |
| 20260903214338 | 79 | 253 | 2.6 | 3.5 | 0.00 | 0.00 | 0.00 | 72 | 1023.6 |
| 20260903213343 | 80 | 253 | 2.6 | 3.5 | 0.00 | 0.00 | 0.00 | 71 | 1023.5 |
| 20260903212341 | 80 | 253 | 0.9 | 4.3 | 0.00 | 0.00 | 0.00 | 71 | 1023.7 |
| 20260903211342 | 80 | 253 | 1.7 | 3.5 | 0.00 | 0.00 | 0.00 | 71 | 1023.5 |
| 20260903210341 | 80 | 254 | 1.7 | 3.5 | 0.00 | 0.00 | 0.00 | 70 | 1023.6 |
| 20260903205400 | 80 | 254 | 2.6 | 4.3 | 0.00 | 0.00 | 0.00 | 70 | 1023.7 |
| 20260903204341 | 80 | 254 | 1.7 | 3.5 | 0.00 | 0.00 | 0.00 | 70 | 1023.7 |
| 20260903203343 | 80 | 255 | 1.7 | 4.3 | 0.00 | 0.00 | 0.00 | 70 | 1023.7 |
| 20260903202357 | 81 | 252 | 1.7 | 4.3 | 0.00 | 0.00 | 0.00 | 70 | 1023.7 |
| 20260903201354 | 81 | 254 | 0.9 | 4.3 | 0.00 | 0.00 | 0.00 | 70 | 1023.7 |
| 20260903200339 | 81 | 251 | 2.6 | 4.3 | 0.00 | 0.00 | 0.00 | 70 | 1023.8 |
| 20260903195339 | 81 | 249 | 1.7 | 4.3 | 0.00 | 0.00 | 0.00 | 70 | 1023.7 |
| 20260903194358 | 81 | 252 | 2.6 | 5.2 | 0.00 | 0.00 | 0.00 | 70 | 1023.6 |
| 20260903193356 | 81 | 223 | 2.6 | 6.1 | 0.00 | 0.00 | 0.00 | 70 | 1023.4 |
| 20260903192350 | 81 | 244 | 2.6 | 6.1 | 0.00 | 0.00 | 0.00 | 69 | 1023.4 |
| 20260903191353 | 82 | 208 | 2.6 | 6.1 | 0.00 | 0.00 | 0.00 | 68 | 1023.3 |
| 20260903190347 | 82 | 238 | 2.6 | 5.2 | 0.00 | 0.00 | 0.00 | 67 | 1023.1 |
| 20260903185355 | 82 | 223 | 0.9 | 4.3 | 0.00 | 0.00 | 0.00 | 67 | 1023.3 |
| 20260903184345 | 82 | 137 | 0.9 | 7.0 | 0.00 | 0.00 | 0.00 | 66 | 1023.0 |
| 20260903183342 | 83 | 214 | 2.6 | 6.1 | 0.00 | 0.00 | 0.00 | 65 | 1023.0 |
| 20260903182347 | 83 | 221 | 3.5 | 8.7 | 0.00 | 0.00 | 0.00 | 64 | 1022.9 |
| 20260903181359 | 83 | 209 | 4.3 | 8.7 | 0.00 | 0.00 | 0.00 | 62 | 1022.8 |
| 20260903180348 | 84 | 221 | 4.3 | 8.7 | 0.00 | 0.00 | 0.00 | 62 | 1022.8 |
| 20260903175355 | 84 | 220 | 3.5 | 7.8 | 0.00 | 0.00 | 0.00 | 60 | 1022.8 |
| 20260903174351 | 85 | 180 | 3.5 | 7.8 | 0.00 | 0.00 | 0.00 | 59 | 1022.7 |
| 20260903173344 | 86 | 206 | 5.2 | 7.8 | 0.00 | 0.00 | 0.00 | 56 | 1022.7 |
| 20260903172357 | 86 | 53 | 0.9 | 7.8 | 0.00 | 0.00 | 0.00 | 55 | 1022.5 |
| 20260903171355 | 86 | 230 | 1.7 | 8.7 | 0.00 | 0.00 | 0.00 | 55 | 1022.6 |
| 20260903170346 | 87 | 240 | 3.5 | 6.1 | 0.00 | 0.00 | 0.00 | 54 | 1022.5 |
| 20260903165350 | 87 | 143 | 3.5 | 10.4 | 0.00 | 0.00 | 0.00 | 54 | 1022.6 |
| 20260903164351 | 87 | 246 | 3.5 | 8.7 | 0.00 | 0.00 | 0.00 | 54 | 1022.6 |
| 20260903163347 | 87 | 208 | 4.3 | 12.2 | 0.00 | 0.00 | 0.00 | 54 | 1022.4 |
| 20260903162340 | 87 | 208 | 2.6 | 12.2 | 0.00 | 0.00 | 0.00 | 54 | 1022.4 |
| 20260903161344 | 87 | 260 | 3.5 | 12.2 | 0.00 | 0.00 | 0.00 | 54 | 1022.5 |
| 20260903160340 | 88 | 220 | 6.1 | 12.2 | 0.00 | 0.00 | 0.00 | 53 | 1022.5 |
| 20260903155354 | 88 | 195 | 5.2 | 12.2 | 0.00 | 0.00 | 0.00 | 53 | 1022.5 |
| 20260903154350 | 88 | 187 | 5.2 | 14.8 | 0.00 | 0.00 | 0.00 | 51 | 1022.6 |
| 20260903153344 | 88 | 216 | 7.8 | 13.0 | 0.00 | 0.00 | 0.00 | 50 | 1022.8 |
| 20260903152349 | 88 | 220 | 6.1 | 9.6 | 0.00 | 0.00 | 0.00 | 48 | 1022.7 |
| 20260903151347 | 87 | 189 | 3.5 | 8.7 | 0.00 | 0.00 | 0.00 | 53 | 1022.7 |
| 20260903150346 | 87 | 159 | 3.5 | 11.3 | 0.00 | 0.00 | 0.00 | 56 | 1022.7 |
| 20260903145355 | 86 | 137 | 9.6 | 14.8 | 0.00 | 0.00 | 0.00 | 56 | 1022.7 |
| 20260903144349 | 87 | 136 | 3.5 | 13.9 | 0.00 | 0.00 | 0.00 | 56 | 1022.8 |
| 20260903143347 | 87 | 144 | 3.5 | 12.2 | 0.00 | 0.00 | 0.00 | 58 | 1022.8 |
| 20260903142359 | 88 | 131 | 5.2 | 12.2 | 0.00 | 0.00 | 0.00 | 56 | 1022.9 |
| 20260903141400 | 88 | 210 | 6.1 | 11.3 | 0.00 | 0.00 | 0.00 | 52 | 1022.9 |
| 20260903140356 | 88 | 172 | 1.7 | 8.7 | 0.00 | 0.00 | 0.00 | 52 | 1023.0 |
| 20260903135352 | 88 | 201 | 3.5 | 13.9 | 0.00 | 0.00 | 0.00 | 52 | 1022.9 |
| 20260903134351 | 88 | 208 | 3.5 | 12.2 | 0.00 | 0.00 | 0.00 | 51 | 1023.2 |
| 20260903133343 | 88 | 249 | 1.7 | 12.2 | 0.00 | 0.00 | 0.00 | 52 | 1023.3 |
| 20260903132355 | 87 | 101 | 2.6 | 12.2 | 0.00 | 0.00 | 0.00 | 51 | 1023.4 |
| 20260903131355 | 87 | 216 | 7.8 | 13.9 | 0.00 | 0.00 | 0.00 | 50 | 1023.5 |
| 20260903130353 | 88 | 209 | 7.0 | 11.3 | 0.00 | 0.00 | 0.00 | 47 | 1023.4 |
| 20260903125349 | 88 | 221 | 6.1 | 9.6 | 0.00 | 0.00 | 0.00 | 46 | 1023.5 |
| 20260903124400 | 89 | 193 | 5.2 | 9.6 | 0.00 | 0.00 | 0.00 | 42 | 1023.5 |
| 20260903123356 | 88 | 235 | 6.1 | 12.2 | 0.00 | 0.00 | 0.00 | 43 | 1023.5 |
| 20260903122353 | 88 | 118 | 3.5 | 11.3 | 0.00 | 0.00 | 0.00 | 38 | 1023.6 |
| 20260903121354 | 88 | 118 | 7.8 | 13.9 | 0.00 | 0.00 | 0.00 | 38 | 1023.5 |
| 20260903120348 | 89 | 101 | 3.5 | 8.7 | 0.00 | 0.00 | 0.00 | 37 | 1023.6 |
| 20260903115402 | 89 | 144 | 2.6 | 8.7 | 0.00 | 0.00 | 0.00 | 37 | 1023.5 |
| 20260903114358 | 89 | 178 | 1.7 | 8.7 | 0.00 | 0.00 | 0.00 | 38 | 1023.5 |
| 20260903113355 | 88 | 213 | 4.3 | 10.4 | 0.00 | 0.00 | 0.00 | 37 | 1023.7 |
| 20260903112350 | 88 | 204 | 5.2 | 10.4 | 0.00 | 0.00 | 0.00 | 37 | 1023.7 |
| 20260903111348 | 88 | 122 | 3.5 | 9.6 | 0.00 | 0.00 | 0.00 | 38 | 1023.7 |
| 20260903110402 | 88 | 122 | 4.3 | 8.7 | 0.00 | 0.00 | 0.00 | 38 | 1023.8 |
| 20260903105354 | 87 | 218 | 3.5 | 9.6 | 0.00 | 0.00 | 0.00 | 37 | 1023.8 |
| 20260903104344 | 87 | 127 | 5.2 | 8.7 | 0.00 | 0.00 | 0.00 | 40 | 1023.9 |
| 20260903103353 | 87 | 180 | 2.6 | 9.6 | 0.00 | 0.00 | 0.00 | 43 | 1024.1 |
| 20260903102343 | 87 | 151 | 3.5 | 7.0 | 0.00 | 0.00 | 0.00 | 43 | 1024.2 |
| 20260903101341 | 86 | 118 | 3.5 | 8.7 | 0.00 | 0.00 | 0.00 | 45 | 1024.3 |
| 20260903100401 | 86 | 110 | 5.2 | 9.6 | 0.00 | 0.00 | 0.00 | 46 | 1024.2 |
| 20260903095352 | 87 | 180 | 1.7 | 7.8 | 0.00 | 0.00 | 0.00 | 46 | 1024.3 |
| 20260903094346 | 86 | 168 | 1.7 | 5.2 | 0.00 | 0.00 | 0.00 | 48 | 1024.4 |
| 20260903093346 | 85 | 247 | 0.0 | 4.3 | 0.00 | 0.00 | 0.00 | 48 | 1024.4 |
| 20260903092359 | 85 | 260 | 2.6 | 4.3 | 0.00 | 0.00 | 0.00 | 47 | 1024.4 |
| 20260903091351 | 84 | 290 | 1.7 | 3.5 | 0.00 | 0.00 | 0.00 | 48 | 1024.3 |
| 20260903090353 | 83 | 292 | 0.0 | 3.5 | 0.00 | 0.00 | 0.00 | 49 | 1024.3 |
| 20260903085349 | 82 | 32 | 0.0 | 1.7 | 0.00 | 0.00 | 0.00 | 51 | 1024.1 |
| 20260903084345 | 81 | 37 | 0.0 | 2.6 | 0.00 | 0.00 | 0.00 | 52 | 1024.2 |
| 20260903083344 | 80 | 38 | 0.9 | 2.6 | 0.00 | 0.00 | 0.00 | 53 | 1024.1 |
| 20260903082357 | 79 | 38 | 0.9 | 2.6 | 0.00 | 0.00 | 0.00 | 55 | 1023.9 |
| 20260903081359 | 79 | 38 | 0.0 | 1.7 | 0.00 | 0.00 | 0.00 | 56 | 1024.2 |
| 20260903080356 | 78 | 38 | 0.9 | 1.7 | 0.00 | 0.00 | 0.00 | 56 | 1024.0 |
| 20260903075352 | 77 | 38 | 0.0 | 1.7 | 0.00 | 0.00 | 0.00 | 59 | 1024.0 |
| 20260903074351 | 76 | 38 | 0.0 | 1.7 | 0.00 | 0.00 | 0.00 | 60 | 1023.9 |
| 20260903073352 | 76 | 38 | 0.9 | 1.7 | 0.00 | 0.00 | 0.00 | 61 | 1024.0 |
| 20260903072345 | 75 | 38 | 0.9 | 1.7 | 0.00 | 0.00 | 0.00 | 64 | 1024.1 |
| 20260903071343 | 74 | 38 | 0.9 | 1.7 | 0.00 | 0.00 | 0.00 | 65 | 1023.9 |
| 20260903070345 | 73 | 38 | 0.0 | 1.7 | 0.00 | 0.00 | 0.00 | 67 | 1023.9 |
| 20260903065400 | 72 | 38 | 0.9 | 2.6 | 0.00 | 0.00 | 0.00 | 67 | 1023.9 |
| 20260903064343 | 72 | 40 | 0.0 | 0.9 | 0.00 | 0.00 | 0.00 | 68 | 1023.9 |
| 20260903063340 | 72 | 39 | 0.0 | 0.9 | 0.00 | 0.00 | 0.00 | 70 | 1023.8 |
| 20260903062353 | 71 | 40 | 0.0 | 2.6 | 0.00 | 0.00 | 0.00 | 70 | 1023.7 |
| 20260903061357 | 70 | 39 | 2.6 | 3.5 | 0.00 | 0.00 | 0.00 | 70 | 1023.6 |
| 20260903060343 | 71 | 40 | 0.9 | 1.7 | 0.00 | 0.00 | 0.00 | 71 | 1023.5 |
| 20260903055343 | 70 | 40 | 0.0 | 1.7 | 0.00 | 0.00 | 0.00 | 72 | 1023.5 |
| 20260903054348 | 70 | 40 | 0.9 | 1.7 | 0.00 | 0.00 | 0.00 | 72 | 1023.3 |
| 20260903053356 | 70 | 40 | 0.0 | 0.9 | 0.00 | 0.00 | 0.00 | 71 | 1023.3 |
| 20260903052355 | 70 | 40 | 0.0 | 1.7 | 0.00 | 0.00 | 0.00 | 72 | 1023.1 |
| 20260903051356 | 70 | 40 | 0.0 | 0.9 | 0.00 | 0.00 | 0.00 | 71 | 1023.1 |
| 20260903050343 | 70 | 40 | 0.0 | 0.9 | 0.00 | 0.00 | 0.00 | 72 | 1023.1 |
| 20260903045357 | 70 | 40 | 0.0 | 1.7 | 0.00 | 0.00 | 0.00 | 71 | 1022.9 |
| 20260903044338 | 70 | 40 | 0.9 | 2.6 | 0.00 | 0.00 | 0.00 | 72 | 1022.9 |
| 20260903043344 | 70 | 40 | 0.9 | 3.5 | 0.00 | 0.00 | 0.00 | 71 | 1022.9 |
| 20260903042355 | 70 | 41 | 0.0 | 1.7 | 0.00 | 0.00 | 0.00 | 71 | 1022.9 |
| 20260903041356 | 70 | 41 | 0.0 | 1.7 | 0.00 | 0.00 | 0.00 | 71 | 1022.9 |
| 20260903040343 | 70 | 41 | 0.9 | 3.5 | 0.00 | 0.00 | 0.00 | 71 | 1023.0 |
| 20260903035340 | 70 | 40 | 0.9 | 2.6 | 0.00 | 0.00 | 0.00 | 71 | 1023.1 |
| 20260903034337 | 70 | 40 | 1.7 | 3.5 | 0.00 | 0.00 | 0.00 | 71 | 1023.2 |
| 20260903033358 | 71 | 40 | 0.9 | 3.5 | 0.00 | 0.00 | 0.00 | 70 | 1023.2 |
| 20260903032355 | 71 | 41 | 0.0 | 2.6 | 0.00 | 0.00 | 0.00 | 70 | 1023.2 |
| 20260903031351 | 71 | 41 | 0.9 | 1.7 | 0.00 | 0.00 | 0.00 | 70 | 1023.2 |
| 20260903030352 | 71 | 41 | 0.0 | 1.7 | 0.00 | 0.00 | 0.00 | 70 | 1023.3 |
| 20260903025349 | 71 | 41 | 0.9 | 2.6 | 0.00 | 0.00 | 0.00 | 70 | 1023.4 |
| 20260903024349 | 71 | 41 | 0.0 | 2.6 | 0.00 | 0.00 | 0.00 | 70 | 1023.4 |
| 20260903023349 | 72 | 41 | 0.0 | 0.0 | 0.00 | 0.00 | 0.00 | 71 | 1023.4 |
| 20260903022341 | 72 | 41 | 0.0 | 0.9 | 0.00 | 0.00 | 0.00 | 71 | 1023.4 |
| 20260903021342 | 72 | 41 | 0.0 | 1.7 | 0.00 | 0.00 | 0.00 | 70 | 1023.4 |
| 20260903020339 | 72 | 41 | 0.9 | 1.7 | 0.00 | 0.00 | 0.00 | 71 | 1023.4 |
| 20260903015356 | 72 | 41 | 0.0 | 1.7 | 0.00 | 0.00 | 0.00 | 71 | 1023.5 |
| 20260903014342 | 72 | 41 | 0.0 | 2.6 | 0.00 | 0.00 | 0.00 | 71 | 1023.4 |
| 20260903013346 | 72 | 41 | 0.0 | 4.3 | 0.00 | 0.00 | 0.00 | 70 | 1023.4 |
| 20260903012343 | 72 | 42 | 1.7 | 4.3 | 0.00 | 0.00 | 0.00 | 70 | 1023.4 |
| 20260903011352 | 73 | 44 | 2.6 | 3.5 | 0.00 | 0.00 | 0.00 | 69 | 1023.5 |
| 20260903010353 | 73 | 45 | 0.9 | 2.6 | 0.00 | 0.00 | 0.00 | 68 | 1023.6 |
| 20260903005351 | 73 | 45 | 1.7 | 2.6 | 0.00 | 0.00 | 0.00 | 68 | 1023.5 |
| 20260903004351 | 73 | 45 | 0.0 | 1.7 | 0.00 | 0.00 | 0.00 | 68 | 1023.6 |
| 20260903003347 | 73 | 45 | 0.0 | 1.7 | 0.00 | 0.00 | 0.00 | 67 | 1023.7 |
| 20260903002342 | 74 | 45 | 0.9 | 1.7 | 0.00 | 0.00 | 0.00 | 67 | 1023.7 |
| 20260903001342 | 74 | 45 | 0.0 | 0.9 | 0.00 | 0.00 | 0.00 | 67 | 1023.7 |
| 20260903000347 | 74 | 45 | 0.0 | 0.9 | 0.00 | 0.00 | 0.00 | 67 | 1023.6 |